Location: Brachowice
(52.0000°N, 19.4000°E)
Time: 04:15:19
(UTC+00:00)

Daily predictions for brighter satellites

Satellite Brightness Start Highest point End
(mag) Time Altitude Azimuth Time Altitude Azimuth Time Altitude Azimuth
NOSS 8 (E) 4.3 00:02:07 17° SW 00:04:19 68° NW 00:07:17 10° NE
Cosmos 2151 4.4 00:08:33 10° SSE 00:12:18 32° E 00:16:03 10° NNE
Cosmos 1825 2.5 00:13:02 19° SSW 00:15:32 52° WNW 00:19:15 10° N
Cosmos 1076 Rocket 3.9 00:12:59 15° S 00:16:25 58° E 00:20:36 10° NNE
Cosmos 540 Rocket 3.5 00:15:11 17° SSW 00:19:11 82° ESE 00:24:20 10° NNE
Cosmos 1408 4.0 00:19:18 14° SW 00:21:49 27° WNW 00:25:02 10° N
Cosmos 1437 2.3 00:19:30 10° NNW 00:22:19 84° ENE 00:24:28 15° SSE
NOSS 2-2 (E) 4.2 00:20:41 17° S 00:22:51 32° ESE 00:26:18 10° ENE
Cosmos 1242 Rocket 2.7 00:19:54 10° NNW 00:23:26 58° W 00:26:08 16° S
Cosmos 2221 2.9 00:21:07 10° NNW 00:25:15 46° W 00:28:24 16° SSW
Cosmos 1656 Rocket 4.2 00:20:16 10° NW 00:25:35 41° WSW 00:30:16 13° S
Cosmos 405 Rocket 3.6 00:23:36 16° SW 00:26:10 36° WNW 00:29:38 10° N
SL-16 R/B 3.6 00:21:18 10° WSW 00:26:23 33° NW 00:31:29 10° NNE
Cosmos 841 Rocket 3.5 00:23:03 16° SSW 00:27:13 82° ESE 00:32:24 10° NNE
Cosmos 2058 3.2 00:24:22 17° SSW 00:27:22 55° WNW 00:31:25 10° N
USA 229 DEB 3.8 00:22:36 10° SW 00:29:07 75° NW 00:36:09 10° NE
USA 229 3.8 00:22:42 10° SW 00:29:13 75° NW 00:36:15 10° NE
X-37B 1.8 00:28:47 19° SW 00:29:53 22° S 00:32:26 10° SE
Cosmos 1937 Rocket 4.3 00:28:26 10° NW 00:33:15 35° WSW 00:37:19 14° SSW
USA 281 4.0 00:27:05 10° SE 00:33:27 55° NE 00:39:50 10° NNW
Meteor 2-15 Rocket 4.5 00:27:39 10° NNW 00:33:51 87° W 00:39:59 10° S
Cosmos 2369 Rocket 3.5 00:30:54 10° NW 00:35:22 24° WSW 00:38:58 14° SSW
Nadezhda 4 Rocket 4.1 00:30:48 14° SSW 00:36:04 64° WNW 00:42:10 10° N
NOSS 2-2 (C) 4.1 00:34:04 15° S 00:36:30 33° SE 00:39:55 10° ENE
Aureole 3 Rocket 3.1 00:33:18 10° NNW 00:37:01 64° W 00:41:59 10° S
Cosmos 2026 Rocket 4.2 00:31:27 10° S 00:37:38 73° E 00:43:59 10° NNE
NOSS 3-1 (C) 4.2 00:32:28 10° WSW 00:38:01 51° NNW 00:44:40 10° NE
Cosmos 1782 4.1 00:35:57 10° N 00:39:46 40° ENE 00:43:33 10° SE
USA 307 3.8 00:38:07 15° SSW 00:41:04 33° SE 00:44:55 10° ENE
FALCON 9 DEB 2.7 00:38:19 10° WNW 00:41:28 74° SSW 00:44:35 10° ESE
ARGOS Delta rocket 4.2 00:36:19 10° N 00:41:50 77° WNW 00:46:49 12° SSW
CREW DRAGON DEMO-1 DEB 2.1 00:40:05 13° WSW 00:42:11 67° SSE 00:44:37 10° E
USA 215 3.9 00:36:32 10° ENE 00:42:57 60° N 00:49:22 10° W
SL-19 R/B 4.4 00:42:58 10° NNE 00:48:13 67° ESE 00:53:37 10° S
NOSS 3-1 (A) 3.8 00:43:11 10° WSW 00:48:46 62° NW 00:55:29 10° NE
Helios 1B rocket 2.4 00:46:13 10° NNE 00:50:20 88° ESE 00:54:08 12° SSW
ATLAS 5 CENTAUR R/B 2.0 00:48:04 13° SSW 00:51:23 48° SE 00:55:44 10° NE
Cosmos 2298 Rocket 4.0 00:46:04 10° NNW 00:51:26 84° WSW 00:56:46 10° SSE
SeaSat 1 4.4 00:51:51 10° ENE 00:55:34 21° ESE 00:59:15 10° SSE
ADEOS Rocket 3.3 00:48:43 10° SSE 00:55:58 84° WSW 01:02:31 10° NNW
Cosmos 1633 2.7 00:53:22 13° SSW 00:56:21 59° WNW 00:59:52 10° N
Cosmos 1814 Rocket 4.0 00:51:51 12° SSW 00:56:39 85° WNW 01:01:51 10° NNE
USA 308 3.6 00:53:26 13° SSW 00:56:55 40° SE 01:00:55 10° ENE
FALCON 9 DEB 3.0 00:55:27 10° W 00:58:29 49° SSW 01:01:28 10° SE
UNK 4.2 00:54:25 10° S 00:58:45 44° W 01:03:12 10° NNW
CZ-3B R/B 2.1 00:51:39 10° WNW 00:59:09 85° NNE 01:01:52 10° ESE
Cosmos 1606 3.9 00:57:54 10° NNW 01:01:13 28° W 01:04:12 12° SSW
Cosmos 2150 Rocket 4.0 00:57:50 10° NNW 01:03:01 74° WSW 01:08:14 10° SSE
FALCON 9 DEB 2.9 01:02:12 10° WNW 01:05:16 54° SSW 01:08:19 10° SE
SL-16 R/B 3.0 01:00:15 10° S 01:06:07 44° W 01:12:00 10° NNW
Cosmos 1570 Rocket 4.1 01:01:44 11° SSW 01:06:45 73° WNW 01:12:01 10° NNE
Cosmos 1933 3.4 01:02:46 10° NNW 01:06:51 65° W 01:10:53 10° S
FALCON 9 DEB 3.1 01:05:42 10° W 01:08:42 45° SSW 01:11:40 10° SE
Cosmos 1125 Rocket 3.5 01:05:52 10° NNW 01:11:07 77° WSW 01:16:24 10° SSE
IRIDIUM 114 4.4 01:06:30 10° N 01:11:46 89° W 01:16:59 10° S
USA 290 2.4 01:11:15 11° SW 01:14:16 60° WNW 01:17:28 10° NNE
DELTA 2 DEB (DPAF) 4.1 01:10:09 10° S 01:14:35 75° WSW 01:19:04 10° NNW
USA 305 3.2 01:10:34 10° SW 01:14:42 53° SSE 01:18:51 10° ENE
Lacrosse 4 Rocket 2.2 01:11:25 10° NW 01:15:00 30° WSW 01:18:32 10° S
Meteor 1-28 Rocket 3.2 01:12:25 10° S 01:16:13 75° WSW 01:20:02 10° NNW
Cosmos 1151 Rocket 3.1 01:11:56 10° N 01:16:14 83° E 01:20:29 10° SSE
CZ-4C R/B 3.9 01:13:13 10° SSE 01:17:02 22° ESE 01:21:23 10° ENE
Cosmos 1092 Rocket 4.3 01:11:11 10° SSW 01:17:10 53° WNW 01:23:12 10° N
ARIANE 5 R/B 4.1 01:14:24 10° NNE 01:18:50 31° E 01:23:14 10° SSE
Resurs 1-4 Rocket 2.7 01:13:49 10° N 01:18:55 48° WNW 01:24:00 10° SW
USA 238 DEB 4.3 01:12:00 10° NW 01:19:09 70° NE 01:26:39 10° ESE
USA 238 4.3 01:12:07 10° NW 01:19:15 69° NE 01:26:45 10° ESE
CENTAUR R/B 3.6 01:12:01 10° NW 01:19:49 71° NE 01:28:36 10° ESE
IRIDIUM 103 4.4 01:15:40 10° N 01:20:55 77° W 01:26:07 10° S
BREEZE-M R/B 3.6 01:18:20 10° SW 01:21:41 42° SSE 01:28:15 10° E
Cosmos 2208 Rocket 4.3 01:16:43 10° SW 01:22:08 69° WNW 01:27:37 10° NNE
Meteor 1-29 3.0 01:19:46 10° N 01:23:12 72° WNW 01:26:34 10° SSW
Cosmos 1766 Rocket 3.9 01:23:16 10° S 01:27:42 72° E 01:32:11 10° NNE
SL-4 R/B 1.6 01:24:20 10° W 01:27:59 65° SSW 01:31:26 10° ESE
Landsat 4 3.8 01:25:12 10° NNE 01:29:00 72° WNW 01:32:45 10° SSW
NPP 4.2 01:24:54 10° N 01:30:06 49° WNW 01:35:15 10° SW
ADEOS II 2.2 01:25:25 10° NNE 01:30:41 74° WNW 01:35:55 10° SSW
IKONOS-2 4.5 01:28:39 10° S 01:32:52 75° WSW 01:37:07 10° NNW
NOSS 2-2 (D) 3.2 01:30:44 10° SW 01:34:11 78° NW 01:38:09 10° NE
Meteor 2-3 Rocket 3.8 01:32:23 10° SSW 01:37:57 67° WNW 01:43:33 10° N
